Location: Antioch Baptist Church
(32.6696°N, 85.7327°W)
Time: 12:26:27
(UTC+00:00)

Resurs 1-3 - Pass Details

Date: 14 July 2020
Orbit: 630 x 632 km, 97.9° (Epoch: 08 August)

Event Time Altitude Azimuth Distance (km) Brightness Sun altitude
Exits shadow 01:45:15 12° 147° (SSE) 1,876 5.5 -10.5°
Maximum altitude 01:49:07 47° 74° (ENE) 834 4.0 -11.1°
Drops below altitude 10° 01:53:19 10° 1° (N) 2,016 6.7 -11.9°
Sets 01:55:35 0° 356° (N) 2,927 7.7 -12.2°
